Wind_Speed
34 35 36 36 36 34 34 35 34 35 34 38 37 39 41 38 42 43 42 45 47 47 48 49 48 50 50 51 52 52 51 52 53 55 57 60 63 66 67 69 72 75 78 80
42 42 41 41 40 40 39 40 40 40 43 44 43 44 45 46 47 49 50 51 50 50 48 48 49 50 49 48 47 49 51 52 54 57 59 61 63 66 68 70 74 77 80 81
50 46 47 46 47 47 46 47 48 48 47 52 51 51 51 51 50 53 54 54 53 52 52 51 51 50 49 50 50 51 53 55 57 59 59 62 65 69 71 73 75 77 79 80
53 47 53 51 51 51 53 51 55 55 55 57 55 60 59 55 56 54 55 55 55 55 53 52 49 49 51 52 51 53 55 57 59 62 63 66 69 72 74 76 77 78 78 80
56 53 56 57 57 55 58 55 61 59 60 61 62 62 68 61 54 58 55 54 54 55 53 51 51 51 51 52 55 57 59 60 62 64 68 71 73 77 78 79 80 81 79 78
56 51 52 53 52 55 54 57 58 61 64 62 64 66 68 65 54 58 54 55 55 55 54 51 53 55 54 55 57 58 62 64 66 69 72 75 78 80 82 83 80 78 76 72
57 54 56 55 56 56 57 58 62 62 67 68 65 68 65 62 62 57 55 57 56 56 53 54 55 55 57 58 59 62 65 66 69 72 76 80 82 82 81 79 76 73 69 67
60 62 61 60 62 61 60 63 65 65 70 71 66 66 69 64 63 59 58 57 58 56 54 54 54 57 56 60 64 67 67 69 73 77 80 83 85 82 78 76 72 68 67 68
68 69 67 65 67 66 67 65 67 64 68 69 69 71 66 65 64 61 59 57 55 54 55 56 56 57 59 63 67 69 71 75 77 79 83 84 83 79 75 71 71 70 72 68
75 73 72 69 72 72 73 72 72 73 70 70 69 70 68 58 63 61 59 55 55 55 55 56 56 59 62 66 68 71 75 76 78 81 84 84 80 74 71 71 74 73 60 52
77 77 81 74 76 80 78 77 75 77 75 71 67 69 65 60 62 62 59 57 55 54 56 57 59 63 66 68 70 73 75 78 80 84 86 80 75 72 73 75 67 53 51 50
83 84 81 81 76 74 76 76 76 76 74 71 67 62 69 64 62 58 59 58 56 55 55 59 61 64 67 70 73 75 77 80 83 85 82 75 71 74 75 59 52 51 52 52
81 81 82 80 80 75 72 68 65 64 63 62 60 59 62 57 56 54 59 60 57 58 60 61 64 66 69 71 74 77 79 81 84 83 75 70 72 72 55 52 53 56 55 53
83 80 79 73 69 65 67 67 63 56 54 55 55 53 56 52 51 55 59 58 57 59 61 64 66 69 72 73 76 78 80 83 81 77 68 69 66 53 53 56 57 53 47 43
70 65 68 65 65 63 61 56 68 57 53 55 54 53 54 48 51 51 54 54 56 59 62 64 64 66 69 74 78 79 80 78 77 66 67 60 50 53 56 57 53 47 42 38
60 59 58 56 56 59 65 64 57 67 57 54 56 55 54 45 49 50 52 57 60 60 62 62 64 68 72 75 76 77 75 75 63 63 54 48 53 55 54 47 45 39 32 25
53 51 53 46 57 63 56 61 67 65 62 61 58 62 53 50 56 59 58 60 61 60 60 61 65 69 72 75 76 73 71 58 59 48 42 47 52 46 43 39 36 29 25 21
50 50 51 48 52 52 53 63 68 68 66 65 61 60 54 54 59 58 57 57 57 59 61 64 68 70 75 77 67 64 53 54 43 37 41 42 44 41 35 30 28 26 22 19
52 51 51 50 52 46 52 62 62 68 64 66 61 62 60 59 60 56 57 57 59 61 64 68 70 73 72 63 55 46 49 40 29 33 34 36 36 34 28 27 26 21 15 12
53 53 48 48 51 45 57 62 56 62 62 64 65 62 58 60 58 59 59 59 59 63 64 67 69 64 59 47 41 44 40 22 25 25 29 33 31 30 26 21 20 12 8 15
53 52 48 41 41 41 52 62 68 63 64 62 57 56 55 59 63 62 60 60 61 64 66 64 58 53 40 35 40 44 17 18 25 29 27 28 28 25 19 16 12 11 21 31
52 52 51 49 43 38 41 60 72 73 69 70 72 72 69 69 69 67 63 61 63 65 57 54 47 35 32 34 40 19 13 16 24 26 23 22 21 15 13 16 22 31 37 34
53 52 51 50 48 35 43 48 63 70 70 70 72 69 69 68 67 65 63 59 49 50 46 41 33 31 28 34 30 5 8 16 21 18 17 14 14 13 17 23 30 33 33 35
56 53 53 49 49 38 38 48 51 59 60 57 52 52 57 59 57 56 49 43 39 40 37 30 29 27 28 32 10 1 7 14 12 11 12 17 20 25 30 34 37 39 40 40
56 57 55 51 46 39 33 46 51 52 49 46 47 50 51 51 49 42 36 34 35 32 29 27 27 23 26 25 7 3 4 5 8 12 16 21 26 31 36 37 37 36 36 35
59 57 54 50 47 39 33 41 46 48 47 45 46 47 47 47 44 39 33 29 29 29 25 25 25 21 24 13 12 7 5 8 15 17 19 23 28 29 30 30 29 28 27 26
Wind_Direction
272 277 282 280 281 282 283 284 284 284 284 288 289 293 289 288 290 291 290 291 291 292 293 293 292 290 287 285 284 286 286 284 282 282 283 284 284 287 291 292 291 290 289 287
275 277 278 277 278 280 281 282 283 284 288 287 290 292 292 291 292 292 293 291 292 293 293 290 288 288 286 285 286 285 285 286 287 286 289 292 295 296 296 296 295 295 293 293
275 277 276 278 279 280 281 281 282 285 286 289 291 293 295 293 291 292 293 293 293 294 293 294 293 292 290 290 291 291 291 292 293 295 297 297 298 298 299 297 297 296 295 293
274 279 277 279 280 281 283 288 287 289 291 291 293 293 296 295 293 291 291 290 291 291 294 295 295 293 294 295 297 296 296 297 298 297 299 299 300 299 299 299 301 301 297 296
276 279 280 282 282 283 282 285 285 288 289 290 289 290 293 294 293 290 289 288 290 292 294 295 294 294 296 295 296 297 298 297 298 300 301 302 303 302 302 301 301 299 297 296
273 274 275 277 279 282 285 283 283 282 282 280 278 287 288 292 293 290 289 288 291 292 294 294 295 296 296 296 295 296 296 299 301 302 303 305 305 304 304 304 301 298 296 293
277 276 280 280 281 282 282 283 284 282 278 278 283 284 283 291 290 290 288 290 290 292 294 293 294 294 294 295 295 296 299 302 303 304 305 306 307 306 304 303 300 299 297 296
274 276 277 282 283 281 283 281 282 282 283 282 285 281 284 285 289 289 289 289 289 291 293 290 291 293 293 294 296 298 304 305 305 306 306 307 309 308 307 305 304 303 301 300
274 275 277 280 281 282 284 284 279 283 282 282 283 280 283 284 284 286 287 288 289 291 291 289 288 290 290 295 298 302 304 303 305 307 308 310 312 311 308 308 308 308 309 307
275 276 276 278 281 281 280 280 281 280 280 279 280 280 282 285 280 285 286 286 289 290 289 288 288 290 293 295 299 302 303 305 307 308 311 313 313 311 310 311 312 311 308 307
275 276 278 278 278 277 278 280 278 276 275 274 275 276 280 280 283 285 284 284 285 286 286 285 287 290 293 296 299 302 304 306 307 311 314 314 313 311 312 313 311 308 308 309
273 276 277 277 275 276 276 273 272 271 272 272 271 273 277 281 282 284 282 281 283 281 281 283 287 291 294 296 299 302 304 307 310 313 315 314 312 313 314 312 310 309 310 309
271 273 273 274 274 274 268 267 268 269 271 272 270 271 276 281 282 282 279 282 283 283 285 286 288 290 293 298 301 303 305 308 312 315 316 313 313 315 314 312 311 311 310 308
271 271 271 268 264 262 262 265 262 264 268 269 270 268 271 274 277 278 279 281 282 285 286 287 291 294 296 299 301 305 308 310 314 317 313 314 316 314 314 317 316 313 312 311
270 268 265 264 260 257 248 259 267 262 262 267 268 269 269 275 276 275 277 281 283 283 287 291 295 298 300 301 303 307 310 313 316 314 315 316 313 316 320 317 317 319 318 316
266 266 266 266 258 251 244 241 249 258 266 264 266 266 266 268 270 274 276 278 281 285 288 293 298 299 300 304 308 312 313 314 315 316 317 316 318 321 318 319 321 323 324 327
266 269 270 265 261 253 254 246 241 243 249 253 258 262 266 267 266 268 275 279 282 286 289 295 299 302 305 308 310 312 313 315 317 318 318 319 321 323 323 322 327 332 340 352
270 272 272 271 268 262 246 245 248 246 248 253 254 258 263 267 268 270 274 280 285 290 293 296 299 302 306 308 312 312 313 317 319 319 321 324 324 327 329 333 332 335 343 359
272 275 276 277 272 262 249 242 246 252 253 252 254 254 256 261 267 274 277 282 285 289 293 296 299 302 305 309 309 312 317 320 322 325 329 329 329 333 335 330 330 337 360 34
270 277 280 281 279 269 243 234 236 248 254 258 260 262 264 266 270 273 277 281 286 291 294 297 300 303 307 308 311 316 321 323 320 327 328 329 326 334 334 338 336 351 47 92
270 276 281 285 284 269 248 234 229 233 243 249 252 256 260 267 270 273 277 282 286 289 294 295 300 304 306 309 315 322 321 318 316 318 321 330 329 342 353 2 21 64 100 111
268 276 281 288 285 261 250 234 230 231 239 245 250 255 262 265 269 273 276 281 287 290 291 295 301 305 307 315 317 318 329 319 322 321 333 333 345 3 26 63 85 97 106 105
269 274 282 288 289 270 244 236 232 232 237 246 252 257 261 266 268 271 277 284 285 287 291 296 302 302 313 316 319 318 338 321 326 339 354 22 41 60 83 96 98 102 102 103
269 273 280 285 291 281 246 233 225 230 237 241 246 259 262 265 272 277 282 283 279 284 291 296 297 303 316 317 299 334 322 322 341 9 46 66 73 87 93 94 95 96 98 99
269 274 278 284 288 287 254 229 228 221 231 238 241 243 256 265 272 277 281 273 273 281 289 290 295 304 314 318 210 177 295 354 58 82 89 93 95 97 99 98 99 101 102 103
268 272 276 282 287 285 255 225 227 227 228 230 234 245 247 261 268 274 271 264 270 283 282 286 292 305 315 304 177 185 191 135 106 99 107 112 113 109 105 104 104 104 103 105
Height
10864 10864 10864 10863 10863 10864 10863 10861 10861 10860 10860 10856 10856 10854 10851 10852 10847 10845 10845 10842 10839 10835 10832 10829 10826 10822 10818 10814 10811 10807 10802 10796 10791 10786 10780 10773 10766 10760 10754 10747 10738 10729 10722 10716
10856 10856 10856 10855 10855 10854 10854 10853 10852 10852 10849 10847 10847 10845 10842 10841 10837 10834 10833 10830 10828 10826 10823 10820 10816 10812 10808 10803 10800 10795 10789 10784 10777 10771 10767 10759 10753 10744 10737 10729 10720 10712 10703 10695
10846 10850 10847 10847 10846 10845 10844 10843 10843 10842 10842 10837 10836 10834 10832 10829 10829 10824 10820 10817 10815 10813 10809 10806 10802 10798 10794 10789 10786 10781 10775 10769 10764 10757 10753 10746 10739 10730 10721 10712 10704 10694 10684 10674
10837 10842 10836 10838 10838 10836 10834 10836 10832 10831 10831 10827 10828 10820 10820 10820 10815 10815 10810 10806 10804 10801 10797 10793 10789 10787 10782 10776 10772 10767 10761 10756 10751 10743 10738 10731 10723 10715 10704 10695 10686 10674 10663 10654
10825 10830 10827 10828 10827 10828 10823 10827 10820 10820 10817 10816 10813 10813 10804 10804 10808 10799 10799 10795 10792 10789 10786 10782 10777 10774 10772 10765 10759 10753 10749 10742 10736 10731 10721 10714 10705 10695 10685 10676 10665 10654 10643 10633
10812 10817 10815 10814 10815 10815 10815 10812 10812 10809 10806 10806 10800 10801 10794 10790 10798 10787 10787 10784 10781 10776 10772 10770 10765 10760 10759 10754 10748 10742 10735 10729 10722 10714 10705 10697 10687 10677 10666 10655 10644 10634 10623 10613
10799 10804 10801 10802 10802 10802 10802 10802 10799 10800 10794 10793 10795 10788 10781 10785 10778 10777 10775 10772 10770 10766 10763 10758 10756 10751 10745 10740 10735 10729 10722 10717 10709 10699 10688 10678 10668 10657 10645 10634 10623 10613 10604 10596
10787 10787 10788 10791 10789 10790 10790 10788 10786 10785 10779 10777 10784 10774 10770 10771 10768 10765 10761 10761 10758 10755 10752 10749 10746 10740 10734 10727 10720 10715 10710 10701 10692 10683 10672 10661 10650 10637 10624 10612 10602 10593 10585 10577
10771 10772 10776 10778 10774 10775 10774 10775 10768 10774 10768 10766 10760 10758 10762 10761 10756 10753 10751 10749 10748 10746 10741 10738 10734 10727 10721 10716 10708 10702 10696 10687 10678 10668 10656 10645 10632 10618 10605 10594 10582 10573 10561 10552
10755 10758 10760 10764 10762 10759 10755 10757 10757 10753 10757 10754 10751 10743 10743 10755 10742 10742 10740 10739 10737 10734 10730 10725 10721 10713 10709 10703 10698 10691 10681 10672 10663 10652 10641 10628 10614 10600 10589 10577 10565 10555 10545 10538
10739 10743 10734 10748 10746 10739 10742 10740 10741 10736 10738 10740 10742 10729 10734 10734 10735 10731 10730 10727 10727 10724 10718 10713 10709 10703 10697 10691 10686 10678 10669 10659 10648 10637 10624 10611 10597 10584 10572 10562 10551 10542 10534 10527
10722 10724 10725 10722 10726 10727 10723 10722 10719 10718 10721 10727 10729 10725 10714 10721 10720 10722 10716 10715 10713 10712 10709 10704 10698 10693 10687 10680 10673 10665 10656 10644 10634 10622 10609 10594 10581 10569 10557 10546 10538 10530 10523 10516
10701 10708 10705 10706 10704 10713 10708 10701 10702 10705 10707 10711 10714 10712 10709 10708 10707 10709 10704 10701 10701 10695 10694 10692 10687 10683 10676 10669 10660 10651 10641 10630 10619 10606 10592 10579 10567 10556 10544 10536 10527 10519 10512 10503
10682 10686 10686 10687 10688 10691 10686 10684 10687 10690 10695 10697 10698 10699 10694 10698 10700 10698 10692 10690 10689 10685 10682 10679 10676 10670 10663 10655 10647 10636 10627 10616 10604 10591 10579 10567 10555 10544 10535 10526 10516 10507 10499 10492
10661 10664 10658 10668 10673 10676 10675 10678 10672 10676 10682 10682 10685 10686 10684 10689 10687 10689 10683 10680 10678 10674 10670 10667 10663 10657 10650 10641 10632 10623 10613 10601 10591 10579 10568 10556 10545 10535 10526 10516 10507 10498 10491 10484
10646 10644 10642 10653 10653 10652 10654 10664 10668 10664 10666 10670 10673 10674 10673 10682 10677 10674 10672 10670 10666 10663 10660 10657 10651 10644 10637 10629 10620 10610 10599 10589 10578 10568 10557 10546 10536 10527 10518 10508 10499 10492 10485 10479
10628 10629 10629 10639 10625 10625 10647 10653 10646 10649 10652 10655 10658 10657 10665 10669 10665 10661 10662 10658 10655 10653 10650 10646 10640 10633 10625 10616 10608 10597 10587 10578 10569 10558 10549 10540 10531 10521 10511 10503 10496 10489 10484 10478
10612 10614 10615 10617 10611 10621 10630 10623 10628 10633 10639 10641 10645 10645 10652 10656 10649 10651 10649 10647 10645 10643 10640 10635 10629 10622 10613 10606 10597 10587 10578 10570 10560 10552 10545 10536 10526 10516 10507 10500 10494 10488 10483 10479
10597 10600 10602 10600 10598 10606 10613 10609 10615 10618 10626 10626 10630 10632 10636 10640 10640 10641 10637 10637 10636 10633 10629 10624 10618 10611 10603 10596 10587 10580 10571 10563 10556 10550 10542 10533 10523 10513 10505 10499 10492 10487 10483 10480
10585 10585 10588 10584 10586 10590 10586 10599 10609 10607 10612 10613 10617 10622 10627 10626 10629 10628 10628 10628 10627 10624 10619 10614 10607 10601 10594 10587 10580 10573 10566 10560 10554 10547 10540 10531 10522 10513 10505 10498 10492 10487 10484 10483
10570 10572 10573 10573 10573 10571 10567 10579 10589 10594 10597 10600 10605 10608 10614 10616 10615 10618 10619 10619 10616 10613 10609 10603 10598 10593 10587 10581 10574 10567 10562 10558 10552 10545 10536 10529 10521 10514 10507 10500 10494 10489 10487 10490
10559 10560 10558 10559 10560 10557 10559 10560 10568 10580 10585 10589 10593 10596 10603 10602 10604 10606 10608 10609 10607 10602 10598 10594 10590 10585 10580 10575 10568 10563 10560 10556 10550 10542 10536 10529 10522 10516 10511 10506 10502 10498 10498 10500
10545 10547 10547 10545 10543 10545 10544 10548 10558 10568 10575 10580 10581 10587 10589 10591 10593 10596 10599 10598 10596 10591 10589 10586 10583 10579 10574 10570 10564 10562 10560 10555 10549 10542 10537 10531 10525 10521 10518 10515 10511 10510 10509 10509
10530 10533 10532 10533 10531 10530 10532 10537 10546 10556 10563 10571 10575 10575 10578 10579 10582 10584 10587 10587 10586 10583 10581 10579 10577 10573 10569 10565 10562 10562 10559 10555 10549 10545 10541 10537 10533 10530 10526 10524 10522 10521 10521 10521
10518 10517 10518 10520 10521 10519 10521 10526 10535 10545 10552 10560 10565 10566 10567 10571 10573 10575 10577 10577 10577 10575 10573 10573 10571 10568 10564 10561 10560 10561 10559 10555 10552 10549 10546 10544 10542 10540 10537 10535 10535 10534 10533 10533
10500 10503 10506 10508 10508 10510 10513 10517 10524 10533 10541 10549 10553 10556 10559 10562 10565 10566 10568 10568 10568 10567 10567 10567 10565 10562 10560 10558 10559 10559 10559 10557 10555 10554 10553 10551 10549 10548 10546 10545 10544 10543 10542 10542